[[[{"header":{"parameterUnit":"kt","parameterCategory":2,"dx":1,"dy":1,"la1":30.253999710083008,"la2":30.299108505249023,"lo1":-89.0895004272461,"lo2":-89.04439544677734,"nx":28,"ny":28,"refTime":"2022-10-15T21:00:00:Z","depth":0,"parameterNumber":1,"parameterNumberName":"U-component_of_WINDS"},"data":[-4.8394,-4.8475,-4.8421,-4.8492,-4.8455,-4.8493,-4.849,-4.848,-4.8459,-4.8501,-4.8516,-4.847,-4.8427,-4.8433,-4.8447,-4.8426,-4.8436,-4.8508,-4.8471,-4.8199,-4.8158,-4.8119,-4.8094,-4.8511,-4.8512,-4.8759,-4.8762,-4.8763,-4.8209,-4.8173,-4.8193,-4.8174,-4.8192,-4.8091,-4.8069,-4.809,-4.8128,-4.8102,-4.8111,-4.8144,-4.8162,-4.8092,-4.8101,-4.8141,-4.8093,-4.8148,-4.8143,-4.8138,-4.7846,-4.7821,-4.8187,-4.8187,-4.8187,-4.8186,-4.8186,-4.8186,-4.7858,-4.7909,-4.7863,-4.7883,-4.7859,-4.7847,-4.7887,-4.7826,-4.7845,-4.7844,-4.7773,-4.7815,-4.7777,-4.7758,-4.7737,-4.7769,-4.7698,-4.774,-4.775,-4.7762,-4.7784,-4.7438,-4.7768,-4.7767,-4.7766,-4.7765,-4.7764,0,-4.7582,-4.7532,-4.7544,-4.7542,-4.7553,-4.7545,-4.7528,-4.7551,-4.7422,-4.7443,-4.7469,-4.7474,-4.7486,-4.7504,-4.7498,-4.7466,-4.7361,-4.7343,-4.7371,-4.7406,-4.7441,-4.7424,-4.6952,-4.7333,-4.7329,-4.7326,-4.7324,-4.7322,-4.7223,-4.7288,-4.721,-4.7227,-4.7202,-4.7231,-4.7237,-4.7116,-4.7128,-4.709,-4.7142,-4.7157,-4.7163,-4.7215,-4.7141,-4.7149,-4.7097,-4.725,-4.7097,-4.7131,-4.71,-4.7097,-4.7104,-4.7281,-4.7286,-4.729,-4.7294,0,-4.7027,-4.693,-4.701,-4.6925,-4.6906,-4.6981,-4.6908,-4.6953,-4.6886,-4.694,-4.6946,-4.6841,-4.6868,-4.6768,-4.6778,-4.6725,-4.6853,-4.6802,-4.6866,-4.685,-4.6977,-4.6967,-4.7402,-4.7454,-4.702,-4.7024,-4.7028,0,-4.6682,-4.6771,-4.662,-4.6671,-4.6767,-4.664,-4.6739,-4.669,-4.665,-4.6691,-4.6553,-4.6595,-4.6458,-4.6486,-4.6408,-4.6494,-4.6495,-4.6459,-4.6437,-4.6471,-4.6476,-4.6473,-4.6453,-4.6383,-4.6381,-4.6379,-4.6377,0,-4.6384,-4.6404,-4.6487,-4.6476,-4.639,-4.6434,-4.6401,-4.6352,-4.6358,-4.6349,-4.6352,-4.6352,-4.6351,-4.6355,-4.6253,-4.6154,-4.6355,-4.6197,-4.6318,-4.6321,-4.6365,-4.6364,-4.6777,-4.6374,-4.6374,-4.6373,-4.6372,0,-4.6087,-4.6077,-4.6212,-4.6137,-4.6147,-4.6202,-4.619,-4.6212,-4.6172,-4.6124,-4.6116,-4.6009,-4.6073,-4.5925,-4.6013,-4.5912,-4.5922,-4.5892,-4.5899,-4.5896,-4.5732,-4.5978,-4.6382,-4.642,-4.5899,-4.5895,-4.5892,0,-4.5774,-4.588,-4.5768,-4.5899,-4.5933,-4.5772,-4.5831,-4.5796,-4.5736,-4.5758,-4.5692,-4.5718,-4.5585,-4.5578,-4.5635,-4.5568,-4.5699,-4.5547,-4.5584,-4.5587,-4.56,-4.597,-4.6055,-4.6306,-4.584,-4.5845,-4.5849,0,-4.5516,-4.5405,-4.5436,-4.5416,-4.5346,-4.5373,-4.5441,-4.5435,-4.5456,-4.5432,-4.5486,-4.5518,-4.5419,-4.5409,-4.532,-4.5385,-4.5607,-4.5269,-4.5266,-4.5335,-4.5804,-4.5885,-4.5927,-4.5534,-4.554,-4.5545,-4.5808,0,-4.5092,-4.5129,-4.5207,-4.5165,-4.5169,-4.5242,-4.5126,-4.5146,-4.5059,-4.4991,-4.5068,-4.5009,-4.5004,-4.5023,-4.4938,-4.5118,-4.5071,-4.4964,-4.4808,-4.5053,-4.5137,-4.5171,-4.4694,-4.4689,-4.4684,-4.4681,0,0,-4.4817,-4.4865,-4.4735,-4.4792,-4.4787,-4.4613,-4.4702,-4.4677,-4.463,-4.4631,-4.4544,-4.4581,-4.4536,-4.4641,-4.4708,-4.4706,-4.4728,-4.4645,-4.4938,-4.4967,-4.4993,-4.5085,-4.5123,-4.4673,-4.4671,-4.4669,-4.4668,0,-4.4635,-4.4589,-4.4676,-4.4644,-4.4589,-4.451,-4.4533,-4.4447,-4.4407,-4.4478,-4.4334,-4.4366,-4.4396,-4.4368,-4.4359,-4.4631,-4.4519,-4.4638,-4.4823,-4.4897,-4.4932,-4.4963,-4.5061,-4.5098,-4.4657,-4.4658,-4.4658,0,-4.436,-4.4296,-4.4324,-4.4299,-4.4261,-4.4298,-4.4107,-4.4154,-4.4181,-4.3986,-4.4059,-4.4011,-4.3962,-4.4075,-4.4121,-4.4043,-4.4337,-4.4221,-4.4246,-4.4248,-4.4314,-4.4356,-4.4394,-4.3897,-4.3895,-4.3893,0,0,-4.422,-4.425,-4.414,-4.425,-4.4237,-4.4119,-4.4126,-4.4037,-4.3995,-4.3979,-4.3912,-4.3878,-4.3894,-4.3908,-4.3916,-4.4056,-4.4037,-4.4133,-4.4168,-4.4198,-4.4217,-4.429,-4.4332,-4.3885,-4.3885,-4.3885,0,0,-4.4151,-4.4026,-4.3943,-4.4056,-4.4021,-4.3919,-4.3992,-4.3888,-4.3882,-4.386,-4.3713,-4.3697,-4.38,-4.3757,-4.3661,-4.3859,-4.3708,-4.3728,-4.3882,-4.3926,-4.3961,-4.3968,-4.3455,0,0,0,0,0,-4.3902,-4.4041,-4.3968,-4.3968,-4.3933,-4.396,-4.3955,-4.3835,-4.3731,-4.3793,-4.372,-4.3599,-4.3675,-4.3587,-4.3591,-4.3698,-4.3779,-4.3798,-4.3816,-4.4047,-4.4093,-4.4133,0,0,0,0,0,0,-4.3901,-4.3902,-4.3963,-4.3869,-4.386,-4.3954,-4.3752,-4.3723,-4.3721,-4.3697,-4.3617,-4.3596,-4.3495,-4.3577,-4.3582,-4.3687,-4.3453,-4.3787,-4.3803,-4.3817,-4.4063,-4.4101,-4.4134,0,0,0,0,0,-4.39,-4.3901,-4.3875,-4.3866,-4.3858,-4.3733,-4.3745,-4.3719,-4.3716,-4.3603,-4.3578,-4.3626,-4.3501,-4.3498,-4.3579,-4.3687,-4.3448,-4.3451,-4.3797,-4.381,-4.3821,-4.4081,0,0,0,0,0,0,-4.3899,-4.3878,-4.3871,-4.3864,-4.3803,-4.3725,-4.3708,-4.3718,-4.3619,-4.3596,-4.3604,-4.3586,-4.3508,-4.3503,-4.3502,-4.3694,-4.3445,-4.3447,-4.3449,-4.3807,-4.3816,-4.3825,0,0,0,0,0,0,-4.3877,-4.3874,-4.3867,-4.3794,-4.3777,-4.3719,-4.3704,-4.3755,-4.362,-4.3625,-4.3607,-4.3597,-4.3511,-4.3509,-4.3506,-4.3591,-4.3442,-4.3444,-4.3446,-4.3447,-4.3815,-4.3822,0,0,0,0,0,0,-4.3873,-4.387,-4.3795,-4.3782,-4.3767,-4.3682,-4.3761,-4.3733,-4.3556,-4.3632,-4.3537,-4.3528,-4.352,-4.3514,-4.3511,-4.3597,-4.3592,-4.3442,-4.3443,-4.3445,-4.3445,0,0,0,0,0,0,0,-4.387,-4.3917,-4.3911,-4.3773,-4.3759,-4.3802,-4.38,-4.3798,-4.3554,-4.3547,-4.3539,-4.3532,-4.3428,-4.343,-4.3433,-4.3602,0,0,-4.3441,-4.3443,0,0,0,0,0,0,0,0,-4.3915,-4.3916,-4.3911,-4.391,-4.3908,-4.3801,-4.38,-4.3798,-4.3553,-4.3547,-4.3541,-4.3535,-4.3428,-4.3431,-4.3433,0,0,0,0,0,0,0,0,0,0,0,0,0,0,0,-4.3911,-4.391,0,-4.3801,-4.38,-4.3799,-4.3552,-4.3547,-4.3542,-4.3537,-4.3429,-4.3431,-4.3433,0,0,0,0,0,0,0,0,0,0,0,0,0,0,0,0,0,0,0,0,0,0,0,0,0,0,0,0,0,0,0,0,0,0,0,0,0,0,0,0,0,0,0,0,0,0,0,0,0,0,0,0,0,0,0,0,0,0,0,0,0,0,0,0,0,0,0,0,0]}],[{"header":{"parameterUnit":"kt","parameterCategory":2,"dx":1,"dy":1,"la1":30.253999710083008,"la2":30.299108505249023,"lo1":-89.0895004272461,"lo2":-89.04439544677734,"nx":28,"ny":28,"refTime":"2022-10-15T21:00:00:Z","depth":0,"parameterNumber":2,"parameterNumberName":"V-component_of_WINDS"},"data":[2.9262,2.9189,2.9222,2.9153,2.9171,2.9128,2.9123,2.912,2.9125,2.9076,2.9053,2.9076,2.9091,2.907,2.9044,2.9055,2.904,2.8992,2.9011,2.9203,2.9231,2.9258,2.9278,2.8989,2.8989,2.8807,2.8805,2.8804,2.9401,2.9419,2.9393,2.9389,2.9366,2.9434,2.9435,2.941,2.9369,2.9374,2.9354,2.9312,2.9282,2.9314,2.9289,2.9253,2.9281,2.9244,2.9245,2.9246,2.9453,2.9473,2.9222,2.9222,2.9222,2.9222,2.9222,2.9222,2.9665,2.9619,2.9637,2.9608,2.9615,2.9612,2.9573,2.9604,2.9577,2.9558,2.96,2.9553,2.9562,2.9547,2.9549,2.9512,2.9557,2.9525,2.9516,2.9506,2.9491,2.9746,2.9509,2.951,2.9511,2.9511,2.9512,0,2.9866,2.9897,2.9874,2.986,2.9841,2.9832,2.983,2.9807,2.988,2.9853,2.9817,2.9801,2.9769,2.9736,2.9719,2.9728,2.9789,2.98,2.9777,2.9753,2.9736,2.9742,3.0075,2.9805,2.9807,2.9809,2.9811,2.9812,3.0131,3.0075,3.0109,3.0088,3.0095,3.0059,3.0044,3.0113,3.0093,3.0098,3.0053,3.0023,3.0002,2.9936,2.9967,2.9941,2.997,2.9863,2.9966,2.9948,2.9964,2.9966,2.996,2.984,2.9836,2.9833,2.9831,0,3.0277,3.0331,3.0254,3.0293,3.03,3.0237,3.0268,3.0224,3.0259,3.0202,3.0193,3.0244,3.0206,3.0256,3.022,3.0247,3.0138,3.0169,3.0137,3.0144,3.0051,3.0058,2.9747,2.9709,3.0012,3.0009,3.0007,0,3.0523,3.0445,3.053,3.0482,3.0399,3.0471,3.0386,3.0406,3.0417,3.0373,3.0455,3.0411,3.0483,3.0446,3.0485,3.0406,3.04,3.0414,3.0424,3.0404,3.0402,3.0389,3.0402,3.0454,3.0455,3.0457,3.0458,0,3.0742,3.0698,3.0622,3.0619,3.065,3.0612,3.0623,3.0635,3.0618,3.0605,3.0594,3.0572,3.0559,3.054,3.059,3.0657,3.0495,3.0598,3.0509,3.0507,3.0466,3.0467,3.0184,3.046,3.046,3.0461,3.0461,0,3.0947,3.0936,3.0817,3.0846,3.083,3.0779,3.0764,3.0733,3.0738,3.0761,3.075,3.0809,3.0745,3.0844,3.0757,3.0831,3.0812,3.0821,3.0816,3.0809,3.0917,3.0746,3.0474,3.0446,3.0809,3.0812,3.0814,0,3.1183,3.1078,3.1139,3.1024,3.0982,3.1078,3.1022,3.1025,3.1051,3.1018,3.1045,3.1005,3.1089,3.1083,3.1034,3.1059,3.0963,3.1074,3.1018,3.1015,3.1011,3.0763,3.0708,3.053,3.0852,3.0848,3.0845,0,3.1371,3.1412,3.1387,3.1387,3.1405,3.137,3.1306,3.1284,3.1258,3.1253,3.1198,3.1144,3.1205,3.1193,3.1237,3.1183,3.103,3.1255,3.1256,3.121,3.0876,3.0825,3.0794,3.1071,3.1067,3.1063,3.0875,0,3.1665,3.162,3.1556,3.1553,3.1535,3.1465,3.1521,3.1494,3.1541,3.1569,3.1491,3.1504,3.1476,3.1456,3.1499,3.136,3.139,3.1455,3.155,3.1388,3.1327,3.1302,3.1637,3.164,3.1643,3.1645,0,0,3.1875,3.1811,3.1879,3.1821,3.1809,3.1908,3.1829,3.1828,3.1823,3.1811,3.1867,3.1789,3.1796,3.1694,3.1648,3.1637,3.1616,3.167,3.1466,3.1445,3.1427,3.1361,3.1334,3.165,3.1651,3.1652,3.1653,0,3.1993,3.2005,3.1928,3.1932,3.1939,3.1974,3.1955,3.1978,3.1992,3.1917,3.1995,3.1954,3.189,3.1886,3.1876,3.1686,3.1744,3.1674,3.1553,3.1491,3.1467,3.1446,3.1376,3.135,3.1659,3.1659,3.1658,0,3.2187,3.2207,3.2176,3.2156,3.2161,3.2114,3.2231,3.2177,3.2142,3.2247,3.217,3.2183,3.2183,3.208,3.2036,3.2084,3.1857,3.1938,3.1923,3.1917,3.1859,3.1831,3.1805,3.214,3.2141,3.2142,0,0,3.2281,3.224,3.228,3.2185,3.2183,3.2233,3.2213,3.2257,3.2257,3.2257,3.2275,3.227,3.2233,3.2207,3.2175,3.2055,3.2059,3.1995,3.1973,3.1954,3.1938,3.1875,3.1847,3.2148,3.2148,3.2148,0,0,3.2324,3.2369,3.2417,3.2314,3.2313,3.2344,3.2282,3.234,3.2317,3.2331,3.2398,3.24,3.2305,3.2313,3.2382,3.2209,3.2304,3.2288,3.2206,3.2178,3.2156,3.2154,3.2499,0,0,0,0,0,3.2474,3.2365,3.2407,3.2399,3.2371,3.2321,3.2318,3.2373,3.244,3.239,3.2415,3.2479,3.2365,3.2427,3.2415,3.2336,3.2219,3.2207,3.2195,3.2061,3.2032,3.2007,0,0,0,0,0,0,3.2471,3.246,3.2411,3.2436,3.243,3.2326,3.2451,3.2463,3.2447,3.2461,3.2473,3.248,3.2524,3.2437,3.2425,3.2349,3.2503,3.2215,3.2204,3.2194,3.2051,3.2027,3.2006,0,0,0,0,0,3.2469,3.246,3.2401,3.2438,3.2433,3.2481,3.2455,3.2467,3.2455,3.2491,3.25,3.2498,3.252,3.2514,3.243,3.2353,3.2511,3.2507,3.2208,3.2199,3.2191,3.2039,0,0,0,0,0,0,3.2467,3.2468,3.2402,3.2402,3.2484,3.2488,3.2491,3.2469,3.2487,3.2495,3.252,3.2531,3.2516,3.2512,3.2507,3.2352,3.2518,3.2513,3.251,3.2201,3.2194,3.2188,0,0,0,0,0,0,3.2474,3.2468,3.2402,3.2456,3.2463,3.2494,3.2497,3.2433,3.2486,3.2515,3.2525,3.2524,3.2522,3.251,3.2507,3.2405,3.2523,3.2519,3.2516,3.2514,3.2196,3.219,0,0,0,0,0,0,3.2472,3.2468,3.2457,3.2462,3.2469,3.2478,3.2438,3.2406,3.2536,3.2513,3.2549,3.2555,3.2518,3.2516,3.2506,3.2405,3.2405,3.2523,3.252,3.2518,3.2517,0,0,0,0,0,0,0,3.2471,3.249,3.2399,3.2467,3.2473,3.2406,3.2406,3.2406,3.2538,3.2543,3.2548,3.2553,3.2548,3.2543,3.2539,3.2405,0,0,3.2523,3.2521,0,0,0,0,0,0,0,0,3.2493,3.2491,3.2399,3.2399,3.2399,3.2406,3.2406,3.2406,3.2539,3.2543,3.2547,3.2551,3.2547,3.2543,3.2539,0,0,0,0,0,0,0,0,0,0,0,0,0,0,0,3.2399,3.2399,0,3.2406,3.2406,3.2406,3.2539,3.2543,3.2546,3.2549,3.2546,3.2543,3.2539,0,0,0,0,0,0,0,0,0,0,0,0,0,0,0,0,0,0,0,0,0,0,0,0,0,0,0,0,0,0,0,0,0,0,0,0,0,0,0,0,0,0,0,0,0,0,0,0,0,0,0,0,0,0,0,0,0,0,0,0,0,0,0,0,0,0,0,0,0]}]]]